RYR50XY LFMU-EGGW

Flight info

Callsign RYR50XY
Flight time 1h 44m
Altitude 38000
Route FJR DCT NG DCT MOLEN DCT MTL DCT ETREK DCT MADOT DCT MOPEM DCT CACHI DCT AVLON DCT OKRIX DCT BRY DCT CLM DCT KOPOR DCT PIREG DCT SOSUN DCT SUBIP UM733 UNDUG
Aircraft B738/M-SDE3FGILRWY/SB1

Departure

Time 2026-04-20 12:52
Airport Béziers Vias airport (LFMU)

Arrival

Time 2026-04-20 14:36
Airport London Luton Airport (EGGW)
Time Latitude Longitude Altitude Speed Heading
2026-04-20 12:44 43.32132 3.35282 58 ft 0 kts 310°
2026-04-20 12:49 43.32171 3.35291 56 ft 12 kts 38°
2026-04-20 12:49 43.32270 3.35328 58 ft 17 kts
2026-04-20 12:49 43.32352 3.35238 56 ft 19 kts 280°
2026-04-20 12:50 43.32363 3.35025 56 ft 23 kts 274°
2026-04-20 12:50 43.32374 3.34809 58 ft 22 kts 274°
2026-04-20 12:50 43.32386 3.34599 58 ft 22 kts 274°
2026-04-20 12:50 43.32397 3.34396 54 ft 21 kts 274°
2026-04-20 12:51 43.32388 3.34236 58 ft 13 kts 248°
2026-04-20 12:51 43.32407 3.34225 61 ft 6 kts 85°
2026-04-20 12:51 43.32389 3.34537 59 ft 73 kts 95°
2026-04-20 12:51 43.32331 3.35595 54 ft 147 kts 94°
2026-04-20 12:52 43.32250 3.37121 582 ft 166 kts 97°
2026-04-20 12:52 43.32164 3.38752 1320 ft 179 kts 92°
2026-04-20 12:52 43.32529 3.40503 1754 ft 212 kts 52°
2026-04-20 12:52 43.33541 3.42124 2048 ft 237 kts 47°
2026-04-20 12:53 43.34629 3.43881 2669 ft 242 kts 47°
2026-04-20 12:53 43.35725 3.45648 3460 ft 244 kts 47°
2026-04-20 12:53 43.36816 3.47450 4145 ft 247 kts 47°
2026-04-20 12:53 43.37942 3.49245 4860 ft 249 kts 45°
2026-04-20 12:54 43.39128 3.51015 5426 ft 259 kts 44°
2026-04-20 12:54 43.40407 3.52896 5883 ft 277 kts 44°
2026-04-20 12:54 43.41736 3.54855 6739 ft 281 kts 45°
2026-04-20 12:54 43.43068 3.56826 7676 ft 284 kts 44°
2026-04-20 12:55 43.44427 3.58839 8530 ft 290 kts 44°
2026-04-20 12:55 43.45811 3.60893 9355 ft 296 kts 44°
2026-04-20 12:55 43.47222 3.62988 10212 ft 301 kts 44°
2026-04-20 12:55 43.48674 3.65149 10853 ft 312 kts 44°
2026-04-20 12:56 43.50158 3.67363 11623 ft 318 kts 44°
2026-04-20 12:56 43.51666 3.69616 12414 ft 323 kts 44°
2026-04-20 12:56 43.53198 3.71907 13280 ft 326 kts 44°
2026-04-20 12:56 43.54744 3.74221 14087 ft 330 kts 44°
2026-04-20 12:57 43.55776 3.75766 14581 ft 332 kts 44°
2026-04-20 12:57 43.57892 3.78939 15498 ft 340 kts 44°
2026-04-20 12:57 43.58956 3.80536 16005 ft 342 kts 44°
2026-04-20 12:57 43.61102 3.83761 17003 ft 347 kts 44°
2026-04-20 12:58 43.62745 3.86231 17730 ft 351 kts 44°
2026-04-20 12:58 43.64412 3.88736 18374 ft 358 kts 44°
2026-04-20 12:58 43.66101 3.91282 19006 ft 361 kts 44°
2026-04-20 12:58 43.67801 3.93846 19684 ft 363 kts 44°
2026-04-20 12:59 43.68957 3.95591 20119 ft 366 kts 44°
2026-04-20 12:59 43.70683 3.98199 20722 ft 370 kts 44°
2026-04-20 12:59 43.72431 4.00841 21343 ft 374 kts 44°
2026-04-20 12:59 43.74195 4.03510 21974 ft 378 kts 44°
2026-04-20 13:00 43.75976 4.06207 22615 ft 381 kts 44°
2026-04-20 13:00 43.77770 4.08928 23226 ft 385 kts 44°
2026-04-20 13:00 43.79577 4.11669 23827 ft 386 kts 44°
2026-04-20 13:00 43.81396 4.14431 24337 ft 390 kts 44°
2026-04-20 13:01 43.83205 4.17180 24829 ft 393 kts 44°
2026-04-20 13:01 43.85054 4.19993 25308 ft 396 kts 44°
2026-04-20 13:01 43.86906 4.22815 25926 ft 396 kts 43°
2026-04-20 13:01 43.88763 4.25652 26360 ft 400 kts 44°
2026-04-20 13:02 43.90623 4.28556 26793 ft 404 kts 44°
2026-04-20 13:02 43.92519 4.31455 27164 ft 410 kts 43°
2026-04-20 13:02 43.94452 4.34375 27746 ft 411 kts 43°
2026-04-20 13:02 43.96398 4.37294 28220 ft 415 kts 43°
2026-04-20 13:03 43.98353 4.40282 28556 ft 420 kts 43°
2026-04-20 13:03 44.00319 4.43315 28964 ft 424 kts 43°
2026-04-20 13:03 44.02302 4.46361 29394 ft 428 kts 43°
2026-04-20 13:03 44.04369 4.49313 29785 ft 424 kts 36°
2026-04-20 13:04 44.06746 4.51733 30109 ft 422 kts 25°
2026-04-20 13:04 44.09364 4.53511 30436 ft 417 kts 15°
2026-04-20 13:04 44.12078 4.54942 30842 ft 417 kts 14°
2026-04-20 13:04 44.14799 4.56338 31280 ft 417 kts 14°
2026-04-20 13:05 44.17528 4.57741 31648 ft 419 kts 14°
2026-04-20 13:05 44.20257 4.59156 32030 ft 419 kts 14°
2026-04-20 13:05 44.22993 4.60587 32338 ft 421 kts 14°
2026-04-20 13:05 44.25745 4.62042 32581 ft 425 kts 15°
2026-04-20 13:06 44.28518 4.63520 32900 ft 427 kts 15°
2026-04-20 13:06 44.31295 4.65005 33247 ft 427 kts 15°
2026-04-20 13:06 44.34077 4.66496 33567 ft 429 kts 15°
2026-04-20 13:06 44.36874 4.67995 33870 ft 431 kts 15°
2026-04-20 13:07 44.39679 4.69497 34125 ft 433 kts 15°
2026-04-20 13:07 44.42495 4.71006 34367 ft 435 kts 15°
2026-04-20 13:07 44.45325 4.72524 34602 ft 437 kts 15°
2026-04-20 13:07 44.48168 4.74051 34807 ft 439 kts 15°
2026-04-20 13:08 44.51021 4.75583 35034 ft 440 kts 14°
2026-04-20 13:08 44.53936 4.76810 35288 ft 434 kts
2026-04-20 13:08 44.56912 4.77305 35530 ft 428 kts 356°
2026-04-20 13:08 44.59863 4.77174 35744 ft 422 kts 346°
2026-04-20 13:09 44.62763 4.76558 35958 ft 422 kts 345°
2026-04-20 13:09 44.65663 4.75881 36170 ft 423 kts 345°
2026-04-20 13:09 44.68559 4.75195 36492 ft 421 kts 345°
2026-04-20 13:09 44.71450 4.74519 36747 ft 421 kts 345°
2026-04-20 13:10 44.74344 4.73854 36995 ft 421 kts 345°
2026-04-20 13:10 44.77230 4.73203 37321 ft 419 kts 345°
2026-04-20 13:10 44.80114 4.72557 37505 ft 421 kts 345°
2026-04-20 13:10 44.83009 4.71912 37705 ft 421 kts 345°
2026-04-20 13:11 44.85862 4.71278 37998 ft 420 kts 345°
2026-04-20 13:11 44.91721 4.69972 38029 ft 427 kts 345°
2026-04-20 13:12 44.97566 4.68666 38009 ft 427 kts 345°
2026-04-20 13:12 45.03434 4.67354 38009 ft 426 kts 345°
2026-04-20 13:13 45.09291 4.66042 38009 ft 426 kts 345°
2026-04-20 13:13 45.15141 4.64725 38019 ft 425 kts 345°
2026-04-20 13:14 45.20971 4.63410 38016 ft 424 kts 345°
2026-04-20 13:14 45.26793 4.62080 38012 ft 423 kts 345°
2026-04-20 13:15 45.32610 4.60741 38034 ft 424 kts 345°
2026-04-20 13:15 45.38431 4.59402 38036 ft 423 kts 345°
2026-04-20 13:16 45.44239 4.58065 38056 ft 423 kts 345°
2026-04-20 13:16 45.50048 4.56727 38081 ft 423 kts 345°
2026-04-20 13:17 45.55879 4.55377 38064 ft 425 kts 345°
2026-04-20 13:17 45.61728 4.54020 38051 ft 426 kts 345°
2026-04-20 13:18 45.67591 4.52658 38033 ft 428 kts 345°
2026-04-20 13:18 45.73466 4.51293 38053 ft 428 kts 345°
2026-04-20 13:19 45.79336 4.49928 38059 ft 427 kts 345°
2026-04-20 13:19 45.85190 4.48565 38051 ft 425 kts 345°
2026-04-20 13:20 45.91030 4.47202 38058 ft 425 kts 345°
2026-04-20 13:20 45.96863 4.45838 38052 ft 424 kts 345°
2026-04-20 13:21 46.02638 4.44484 38054 ft 423 kts 345°
2026-04-20 13:21 46.08447 4.43116 38072 ft 423 kts 345°
2026-04-20 13:22 46.14255 4.41744 38059 ft 424 kts 345°
2026-04-20 13:22 46.20077 4.40370 38051 ft 424 kts 345°
2026-04-20 13:23 46.25906 4.38992 38038 ft 425 kts 345°
2026-04-20 13:23 46.31696 4.37375 38056 ft 423 kts 341°
2026-04-20 13:24 46.37412 4.35346 38058 ft 423 kts 340°
2026-04-20 13:24 46.43122 4.33283 38071 ft 424 kts 341°
2026-04-20 13:25 46.48858 4.31245 38080 ft 425 kts 341°
2026-04-20 13:25 46.54604 4.29221 38070 ft 425 kts 341°
2026-04-20 13:26 46.60363 4.27194 38064 ft 426 kts 341°
2026-04-20 13:26 46.66126 4.25160 38065 ft 426 kts 341°
2026-04-20 13:27 46.71855 4.23132 38062 ft 427 kts 341°
2026-04-20 13:27 46.77623 4.21085 38056 ft 426 kts 341°
2026-04-20 13:28 46.83385 4.19039 38065 ft 426 kts 341°
2026-04-20 13:28 46.89144 4.16986 38059 ft 426 kts 341°
2026-04-20 13:29 46.94901 4.14929 38073 ft 426 kts 341°
2026-04-20 13:29 47.00665 4.12865 38068 ft 427 kts 341°
2026-04-20 13:30 47.06430 4.10783 38070 ft 426 kts 339°
2026-04-20 13:30 47.11934 4.07808 38083 ft 420 kts 332°
2026-04-20 13:31 47.17335 4.04493 38079 ft 421 kts 332°
2026-04-20 13:31 47.22751 4.01207 38074 ft 422 kts 333°
2026-04-20 13:32 47.28190 3.97957 38082 ft 422 kts 333°
2026-04-20 13:32 47.33636 3.94710 38097 ft 423 kts 333°
2026-04-20 13:33 47.39094 3.91450 38084 ft 424 kts 333°
2026-04-20 13:33 47.44565 3.88175 38087 ft 424 kts 333°
2026-04-20 13:34 47.50042 3.84885 38091 ft 425 kts 333°
2026-04-20 13:34 47.55531 3.81585 38102 ft 426 kts 333°
2026-04-20 13:35 47.61028 3.78285 38101 ft 426 kts 333°
2026-04-20 13:35 47.66531 3.74986 38098 ft 427 kts 333°
2026-04-20 13:36 47.72029 3.71681 38103 ft 426 kts 333°
2026-04-20 13:36 47.77484 3.68391 38108 ft 426 kts 333°
2026-04-20 13:37 47.82974 3.65072 38106 ft 426 kts 333°
2026-04-20 13:37 47.88458 3.61749 38110 ft 425 kts 333°
2026-04-20 13:38 47.93937 3.58422 38117 ft 425 kts 333°
2026-04-20 13:38 47.99410 3.55086 38122 ft 425 kts 333°
2026-04-20 13:39 48.04875 3.51725 38122 ft 425 kts 333°
2026-04-20 13:39 48.10345 3.48352 38121 ft 425 kts 333°
2026-04-20 13:40 48.15821 3.44968 38128 ft 425 kts 333°
2026-04-20 13:40 48.21293 3.41581 38116 ft 425 kts 333°
2026-04-20 13:41 48.26755 3.38191 38130 ft 425 kts 333°
2026-04-20 13:41 48.32220 3.34792 38129 ft 425 kts 333°
2026-04-20 13:42 48.37687 3.31384 38131 ft 425 kts 333°
2026-04-20 13:42 48.45877 3.26225 38137 ft 426 kts 333°
2026-04-20 13:43 48.51330 3.22740 38133 ft 426 kts 333°
2026-04-20 13:43 48.56782 3.19248 38144 ft 425 kts 333°
2026-04-20 13:44 48.62195 3.15780 38164 ft 426 kts 333°
2026-04-20 13:44 48.67647 3.12278 38153 ft 426 kts 333°
2026-04-20 13:45 48.73115 3.08757 38149 ft 427 kts 333°
2026-04-20 13:45 48.78516 3.05091 38123 ft 423 kts 325°
2026-04-20 13:46 48.83152 2.99758 38156 ft 417 kts 317°
2026-04-20 13:46 48.87615 2.94110 38165 ft 417 kts 317°
2026-04-20 13:47 48.92090 2.88472 38158 ft 418 kts 317°
2026-04-20 13:47 48.96575 2.82844 38158 ft 419 kts 317°
2026-04-20 13:48 49.00310 2.78161 38180 ft 418 kts 317°
2026-04-20 13:48 49.04802 2.72518 38195 ft 419 kts 317°
2026-04-20 13:49 49.09296 2.66861 38190 ft 419 kts 317°
2026-04-20 13:49 49.13788 2.61194 38171 ft 419 kts 317°
2026-04-20 13:50 49.18274 2.55519 38179 ft 419 kts 317°
2026-04-20 13:50 49.22756 2.49835 38181 ft 419 kts 317°
2026-04-20 13:51 49.27237 2.44137 38184 ft 419 kts 317°
2026-04-20 13:51 49.31716 2.38426 38190 ft 419 kts 317°
2026-04-20 13:52 49.36188 2.32709 38188 ft 419 kts 317°
2026-04-20 13:52 49.40665 2.26980 38191 ft 419 kts 317°
2026-04-20 13:53 49.45138 2.21241 38173 ft 419 kts 317°
2026-04-20 13:53 49.49601 2.15497 38186 ft 418 kts 317°
2026-04-20 13:54 49.54059 2.09745 38186 ft 418 kts 317°
2026-04-20 13:54 49.58514 2.03982 38183 ft 418 kts 317°
2026-04-20 13:55 49.62936 1.98253 38193 ft 418 kts 316°
2026-04-20 13:55 49.67376 1.92481 38192 ft 417 kts 316°
2026-04-20 13:56 49.71804 1.86708 38200 ft 417 kts 316°
2026-04-20 13:56 49.76235 1.80921 38209 ft 417 kts 317°
2026-04-20 13:57 49.80657 1.75132 38211 ft 416 kts 316°
2026-04-20 13:57 49.85077 1.69330 38201 ft 416 kts 316°
2026-04-20 13:58 49.89494 1.63518 38212 ft 416 kts 316°
2026-04-20 13:58 49.93906 1.57693 38214 ft 417 kts 316°
2026-04-20 13:59 49.98323 1.51853 38223 ft 417 kts 317°
2026-04-20 13:59 50.02739 1.46001 38204 ft 417 kts 316°
2026-04-20 14:00 50.07144 1.40144 38222 ft 416 kts 316°
2026-04-20 14:00 50.11536 1.34294 38214 ft 415 kts 316°
2026-04-20 14:01 50.15917 1.28441 38219 ft 414 kts 316°
2026-04-20 14:01 50.20283 1.22595 38246 ft 414 kts 316°
2026-04-20 14:02 50.24645 1.16736 38239 ft 414 kts 316°
2026-04-20 14:02 50.29007 1.10866 38234 ft 414 kts 316°
2026-04-20 14:03 50.33368 1.04982 38253 ft 414 kts 316°
2026-04-20 14:03 50.37727 0.99083 38247 ft 414 kts 316°
2026-04-20 14:04 50.42109 0.93140 37717 ft 420 kts 316°
2026-04-20 14:04 50.44285 0.90183 37138 ft 418 kts 316°
2026-04-20 14:04 50.46474 0.87206 36575 ft 416 kts 316°
2026-04-20 14:05 50.48654 0.84238 35968 ft 414 kts 316°
2026-04-20 14:05 50.50830 0.81271 35320 ft 414 kts 316°
2026-04-20 14:05 50.53001 0.78308 34678 ft 413 kts 316°
2026-04-20 14:05 50.55164 0.75350 33988 ft 411 kts 316°
2026-04-20 14:06 50.57309 0.72414 33391 ft 407 kts 315°
2026-04-20 14:06 50.59443 0.69490 32517 ft 408 kts 315°
2026-04-20 14:06 50.61578 0.66562 31803 ft 406 kts 315°
2026-04-20 14:06 50.63704 0.63639 31075 ft 405 kts 314°
2026-04-20 14:07 50.65826 0.60718 30335 ft 404 kts 314°
2026-04-20 14:07 50.67931 0.57817 29700 ft 397 kts 314°
2026-04-20 14:07 50.69994 0.54972 29104 ft 390 kts 314°
2026-04-20 14:07 50.72017 0.52180 28546 ft 383 kts 314°
2026-04-20 14:08 50.74004 0.49433 28016 ft 376 kts 314°
2026-04-20 14:08 50.75960 0.46725 27459 ft 371 kts 314°
2026-04-20 14:08 50.77881 0.44061 26944 ft 365 kts 314°
2026-04-20 14:08 50.79754 0.41469 26421 ft 361 kts 315°
2026-04-20 14:09 50.81670 0.38867 25893 ft 357 kts 315°
2026-04-20 14:09 50.83549 0.36332 25383 ft 353 kts 315°
2026-04-20 14:09 50.85383 0.33858 24889 ft 350 kts 315°
2026-04-20 14:09 50.87228 0.31363 24390 ft 347 kts 316°
2026-04-20 14:10 50.89055 0.28886 23930 ft 344 kts 316°
2026-04-20 14:10 50.90867 0.26423 23342 ft 342 kts 316°
2026-04-20 14:10 50.92666 0.23976 22827 ft 338 kts 316°
2026-04-20 14:10 50.94437 0.21561 22339 ft 335 kts 316°
2026-04-20 14:11 50.96199 0.19159 21854 ft 333 kts 316°
2026-04-20 14:11 50.97953 0.16764 21333 ft 332 kts 317°
2026-04-20 14:11 50.99751 0.14400 20800 ft 341 kts 322°
2026-04-20 14:11 51.01896 0.12763 20294 ft 346 kts 338°
2026-04-20 14:12 51.04226 0.11923 20093 ft 341 kts 347°
2026-04-20 14:12 51.06632 0.11836 19887 ft 355 kts 356°
2026-04-20 14:12 51.09145 0.12008 19670 ft 367 kts 357°
2026-04-20 14:12 51.11714 0.12218 19428 ft 371 kts 358°
2026-04-20 14:13 51.14279 0.12439 19186 ft 367 kts 358°
2026-04-20 14:13 51.16825 0.12653 18953 ft 365 kts 358°
2026-04-20 14:13 51.19354 0.12855 18724 ft 363 kts 358°
2026-04-20 14:13 51.21875 0.13049 18478 ft 362 kts 358°
2026-04-20 14:14 51.24384 0.13238 18213 ft 361 kts 358°
2026-04-20 14:14 51.26897 0.13424 17977 ft 360 kts 358°
2026-04-20 14:14 51.29398 0.13608 17734 ft 360 kts 358°
2026-04-20 14:14 51.31894 0.13790 17504 ft 359 kts 359°
2026-04-20 14:15 51.34392 0.13971 17234 ft 360 kts 359°
2026-04-20 14:15 51.36897 0.14153 17005 ft 361 kts 360°
2026-04-20 14:15 51.39409 0.14336 16772 ft 362 kts 360°
2026-04-20 14:15 51.41922 0.14520 16540 ft 363 kts 360°
2026-04-20 14:16 51.44447 0.14706 16311 ft 363 kts
2026-04-20 14:16 51.46971 0.14892 16080 ft 362 kts
2026-04-20 14:16 51.49486 0.15077 15855 ft 361 kts
2026-04-20 14:16 51.51994 0.15261 15621 ft 360 kts
2026-04-20 14:17 51.54492 0.15445 15392 ft 358 kts
2026-04-20 14:17 51.56981 0.15626 15162 ft 358 kts
2026-04-20 14:17 51.59466 0.15809 14937 ft 357 kts
2026-04-20 14:17 51.61940 0.15993 14718 ft 355 kts
2026-04-20 14:18 51.64399 0.16177 14503 ft 353 kts
2026-04-20 14:18 51.66852 0.16357 14261 ft 353 kts
2026-04-20 14:18 51.69301 0.16537 14058 ft 351 kts
2026-04-20 14:18 51.71736 0.16718 13816 ft 350 kts
2026-04-20 14:19 51.74165 0.16898 13586 ft 349 kts
2026-04-20 14:19 51.76579 0.17078 13360 ft 347 kts
2026-04-20 14:19 51.78983 0.17258 13143 ft 345 kts
2026-04-20 14:19 51.81386 0.17434 12927 ft 345 kts
2026-04-20 14:20 51.83780 0.17613 12711 ft 344 kts
2026-04-20 14:20 51.86167 0.17792 12490 ft 343 kts
2026-04-20 14:20 51.88549 0.17971 12274 ft 343 kts
2026-04-20 14:20 51.90928 0.18019 12049 ft 342 kts 354°
2026-04-20 14:21 51.93262 0.17395 11829 ft 340 kts 345°
2026-04-20 14:21 51.95484 0.16119 11598 ft 339 kts 337°
2026-04-20 14:21 51.97636 0.14635 11361 ft 331 kts 337°
2026-04-20 14:21 51.99725 0.13204 11152 ft 321 kts 338°
2026-04-20 14:22 52.01757 0.11831 10950 ft 311 kts 338°
2026-04-20 14:22 52.03734 0.10499 10734 ft 303 kts 338°
2026-04-20 14:22 52.05600 0.09128 10540 ft 296 kts 328°
2026-04-20 14:22 52.07029 0.06799 10365 ft 291 kts 303°
2026-04-20 14:23 52.07748 0.03773 10253 ft 285 kts 282°
2026-04-20 14:23 52.07840 0.00628 10128 ft 279 kts 264°
2026-04-20 14:23 52.07326 -0.02415 9866 ft 277 kts 252°
2026-04-20 14:23 52.06672 -0.05347 9657 ft 274 kts 252°
2026-04-20 14:24 52.06007 -0.08242 9465 ft 274 kts 251°
2026-04-20 14:24 52.05345 -0.11147 9282 ft 274 kts 251°
2026-04-20 14:24 52.04686 -0.14061 9102 ft 276 kts 251°
2026-04-20 14:24 52.04028 -0.16983 8927 ft 276 kts 251°
2026-04-20 14:25 52.03373 -0.19903 8742 ft 274 kts 251°
2026-04-20 14:25 52.02721 -0.22810 8571 ft 273 kts 251°
2026-04-20 14:25 52.02075 -0.25697 8385 ft 272 kts 251°
2026-04-20 14:25 52.01431 -0.28576 8232 ft 271 kts 250°
2026-04-20 14:26 52.00785 -0.31455 8054 ft 273 kts 251°
2026-04-20 14:26 52.00135 -0.34346 7886 ft 272 kts 250°
2026-04-20 14:26 51.99500 -0.37242 7704 ft 273 kts 252°
2026-04-20 14:26 51.98856 -0.40138 7549 ft 273 kts 250°
2026-04-20 14:27 51.98182 -0.43022 7360 ft 273 kts 250°
2026-04-20 14:27 51.97499 -0.45911 7195 ft 275 kts 250°
2026-04-20 14:27 51.96816 -0.48805 7010 ft 275 kts 249°
2026-04-20 14:27 51.96138 -0.51687 6820 ft 273 kts 250°
2026-04-20 14:28 51.95457 -0.54591 6430 ft 276 kts 250°
2026-04-20 14:28 51.94780 -0.57486 6217 ft 273 kts 250°
2026-04-20 14:28 51.94107 -0.60352 6028 ft 271 kts 250°
2026-04-20 14:28 51.93438 -0.63185 5848 ft 268 kts 249°
2026-04-20 14:29 51.92775 -0.65978 5675 ft 264 kts 249°
2026-04-20 14:29 51.91797 -0.68451 5529 ft 260 kts 226°
2026-04-20 14:29 51.90588 -0.70525 5375 ft 254 kts 227°
2026-04-20 14:29 51.89411 -0.72682 5207 ft 250 kts 229°
2026-04-20 14:30 51.88195 -0.74637 5020 ft 244 kts 210°
2026-04-20 14:30 51.86651 -0.75460 4819 ft 236 kts 181°
2026-04-20 14:30 51.85044 -0.75155 4551 ft 232 kts 162°
2026-04-20 14:30 51.83501 -0.74420 4284 ft 231 kts 154°
2026-04-20 14:31 51.82281 -0.72870 4001 ft 222 kts 118°
2026-04-20 14:31 51.81944 -0.70511 3676 ft 218 kts 82°
2026-04-20 14:31 51.82207 -0.68092 3345 ft 220 kts 77°
2026-04-20 14:31 51.82545 -0.65660 3037 ft 221 kts 75°
2026-04-20 14:32 51.82931 -0.63309 2838 ft 211 kts 73°
2026-04-20 14:32 51.83312 -0.61074 2641 ft 201 kts 73°
2026-04-20 14:32 51.83673 -0.58952 2471 ft 191 kts 72°
2026-04-20 14:32 51.84022 -0.56921 2276 ft 183 kts 72°
2026-04-20 14:33 51.84345 -0.55036 2135 ft 167 kts 73°
2026-04-20 14:33 51.84641 -0.53284 2045 ft 158 kts 73°
2026-04-20 14:33 51.84926 -0.51616 2029 ft 148 kts 71°
2026-04-20 14:33 51.85191 -0.50065 2004 ft 138 kts 72°
2026-04-20 14:34 51.85460 -0.48498 1855 ft 146 kts 72°
2026-04-20 14:34 51.85720 -0.46977 1658 ft 135 kts 73°
2026-04-20 14:34 51.85968 -0.45538 1482 ft 132 kts 72°
2026-04-20 14:34 51.86214 -0.44110 1307 ft 134 kts 73°
2026-04-20 14:35 51.86467 -0.42623 1085 ft 140 kts 73°
2026-04-20 14:35 51.86729 -0.41160 931 ft 136 kts 73°
2026-04-20 14:35 51.86968 -0.39692 738 ft 133 kts 72°
2026-04-20 14:35 51.87215 -0.38268 542 ft 128 kts 72°
2026-04-20 14:36 51.87433 -0.37012 522 ft 100 kts 74°
2026-04-20 14:36 51.87567 -0.36244 519 ft 39 kts 74°
2026-04-20 14:36 51.87612 -0.35984 515 ft 8 kts 73°
2026-04-20 14:36 51.87651 -0.35919 515 ft 10 kts
2026-04-20 14:37 51.87728 -0.35947 515 ft 12 kts 342°
2026-04-20 14:37 51.87782 -0.36035 516 ft 12 kts 280°
2026-04-20 14:37 51.87765 -0.36185 517 ft 16 kts 254°
2026-04-20 14:37 51.87732 -0.36376 517 ft 18 kts 254°
2026-04-20 14:38 51.87699 -0.36565 519 ft 17 kts 254°
2026-04-20 14:38 51.87668 -0.36747 522 ft 16 kts 254°
2026-04-20 14:38 51.87637 -0.36922 525 ft 16 kts 254°
2026-04-20 14:38 51.87598 -0.37149 521 ft 24 kts 254°
2026-04-20 14:39 51.87575 -0.37323 521 ft 23 kts 269°
2026-04-20 14:39 51.87660 -0.37496 521 ft 20 kts 321°
2026-04-20 14:39 51.87735 -0.37693 520 ft 20 kts 295°
2026-04-20 14:39 51.87793 -0.37892 522 ft 19 kts 298°
2026-04-20 14:40 51.87884 -0.38031 522 ft 18 kts 344°
2026-04-20 14:40 51.87993 -0.37966 522 ft 11 kts 38°
2026-04-20 14:40 51.88010 -0.37912 522 ft 3 kts 112°
2026-04-20 14:40 51.87996 -0.37881 522 ft 1 kts 128°
2026-04-20 14:41 51.87990 -0.37869 522 ft 2 kts 127°
2026-04-20 14:41 51.87990 -0.37868 522 ft 0 kts 127°